Starlink 35752

operational
NORAD ID: 66275 Int'l Des: 2025-247 Owner: SPXS Country: US Constellation: starlink
NOTLE

Starlink 35752について

説明を読み込み中...

リアルタイム位置

3D地球を読み込み中...

次回通過

高度履歴

Altitude vs Time

uPlot chart will show altitude changes over time

軌道要素

1 66275U 25247L 25351.88324057 .00022872 00000-0 58107-3 0 9994
2 66275 53.1588 213.2039 0001156 90.5608 269.5529 15.39566764 8489
Epoch: Dec 17, 2025 • Age: 17 hours

現在のステータス

高度 465.9 km
速度 7.63 km/s
衛星直下点 -51.51°S, 163.67°E
打ち上げ日 Oct 31, 2025
運用期間 0.1 years
タイプ internet

技術仕様

分類 Payload
質量 575.00 kg
乾燥質量 530.00 kg
総質量 575.00 kg
長さ 0.30 m
直径 4.10 m
スパン 29.00 m
形状 Box + pan
製造者 SPXS
バスタイプ Starlink V2MO
フェーズステータス In Orbit
所有者/国 SPXS/US

大規模コンステレーション

Loading constellations...